Location: Isle of Thanet
(51.3500°N, 1.3333°E)
Time: 12:47:54
(UTC+00:00)

Daily predictions for brighter satellites

Satellite Brightness Start Highest point End
(mag) Time Altitude Azimuth Time Altitude Azimuth Time Altitude Azimuth
Cosmos 1980 3.8 16:20:20 10° SSW 16:26:02 89° ESE 16:31:45 10° NNE
NOAA 6 4.1 16:22:27 10° SSE 16:27:30 62° ENE 16:32:35 10° N
Okean O Rocket 2.3 16:23:42 10° SE 16:27:36 32° ENE 16:31:32 10° N
Cosmos 1633 Rocket 3.6 16:24:56 10° N 16:28:58 35° ENE 16:32:58 10° SE
ISS -3.7 16:25:43 10° W 16:29:06 90° NE 16:32:29 10° E
H-2A R/B 2.7 16:28:04 10° SSE 16:31:56 81° ENE 16:35:51 10° NNW
Meteor 2-12 Rocket 4.5 16:26:57 10° N 16:33:07 66° ENE 16:39:11 10° SSE
Cosmos 1933 4.3 16:30:01 10° SSE 16:33:27 27° E 16:36:57 10° NNE
Spot 2 4.4 16:29:30 10° SSE 16:34:17 83° ENE 16:39:21 10° NNW
Cosmos 2218 Rocket 4.3 16:29:28 10° N 16:35:17 41° ENE 16:41:03 10° SE
Nadezhda 1 Rocket 4.1 16:29:20 10° S 16:35:43 83° E 16:42:10 10° NNE
Cosmos 2366 rocket 4.4 16:30:25 10° N 16:36:14 40° ENE 16:41:59 10° SE
Meteor 1-25 Rocket 4.4 16:31:41 10° N 16:37:09 49° ENE 16:42:39 10° SE
ERS-2 4.2 16:36:49 10° ENE 16:37:33 10° E 16:38:16 10° E
Cosmos 1867 3.7 16:33:45 10° SSW 16:39:07 66° SE 16:44:33 10° NE
Envisat 3.0 16:38:39 10° SSE 16:43:43 82° ENE 16:48:51 10° NNW
SL-08 R/B 4.2 16:39:46 10° N 16:44:30 51° WNW 16:49:08 10° SW
Lacrosse 5 rocket 1.5 16:43:38 10° SW 16:47:10 48° SE 16:50:15 13° ENE
Cosmos 2322 Rocket 4.3 16:49:18 10° NW 16:52:18 14° NNW 16:55:17 10° N
YAOGAN 6 2.5 16:49:06 10° SSE 16:52:43 79° ENE 16:56:20 10° N
Cosmos 2297 4.0 16:47:03 10° NNW 16:52:45 77° WSW 16:58:26 10° SSE
Cosmos 1606 2.7 16:51:08 10° S 16:55:01 77° E 16:58:55 10° NNE
CZ-4B R/B 2.9 16:56:26 15° ENE 16:57:18 16° E 16:59:23 10° SE
AQUARIUS 4.2 16:53:31 10° SSE 16:57:56 60° ENE 17:02:23 10° N
FengYun 1-2 T 4.3 16:52:43 10° SE 16:58:03 52° ENE 17:03:22 10° N
Landsat 5 3.6 16:54:06 10° NNE 16:58:33 68° ESE 17:03:03 10° S
SL-16 R/B 2.3 16:53:42 10° SSW 16:59:15 61° ESE 17:04:50 10° NE
BREEZE-M DEB (TANK) 3.8 17:00:21 10° SSW 17:02:14 18° SSE 17:03:26 12° ESE
Cosmos 1500 4.4 17:01:29 10° NNE 17:04:29 21° ENE 17:07:28 10° ESE
Sich 1 3.7 17:02:20 10° NNW 17:06:40 59° W 17:10:55 10° S
SMAP 3.0 17:02:18 10° SSE 17:06:57 81° ENE 17:11:38 10° NNW
Cosmos 1656 Rocket 4.1 17:03:23 10° NNW 17:08:43 40° NE 17:13:58 10° ESE
CZ-4C R/B 3.1 17:05:59 10° NNE 17:09:38 86° W 17:13:15 10° SSW
YAOGAN 1 3.9 17:09:19 16° E 17:10:54 19° ENE 17:13:58 10° NNE
Cosmos 1470 Rocket 3.6 17:07:20 10° N 17:11:35 52° ENE 17:15:48 10° SSE
Cosmos 783 Rocket 4.5 17:07:10 10° SSW 17:12:27 73° ESE 17:17:43 10° NNE
Cosmos 1151 Rocket 3.0 17:09:18 10° S 17:13:29 56° E 17:17:40 10° NNE
Cosmos 864 Rocket 4.4 17:11:02 10° N 17:17:22 73° ENE 17:23:36 10° SSE
Cosmos 2263 4.3 17:12:10 10° NNW 17:17:42 55° NE 17:23:11 10° SE
SL-8 Rocket 4.0 17:14:18 10° N 17:20:36 88° W 17:26:54 10° S
Cosmos 1515 Rocket 4.1 17:17:31 10° SSE 17:21:33 37° E 17:25:08 13° NNE
Cosmos 2341 Rocket 4.4 17:15:52 10° NNW 17:22:08 69° W 17:28:24 10° S
CZ-2C R/B 3.6 17:18:37 10° ESE 17:22:51 30° ENE 17:27:00 10° N
Cosmos 1238 Rocket 3.9 17:20:24 10° NNE 17:23:40 25° ENE 17:27:27 10° SE
COSMO-SKYMED 1 3.5 17:23:06 21° NE 17:24:56 28° E 17:28:41 10° SSE
TELKOM 3 3.3 17:22:44 10° W 17:25:30 62° S 17:26:18 35° ESE
X-37B 2.7 17:25:51 10° SSW 17:28:11 19° SSE 17:29:28 15° SE
Cosmos 2360 Rocket 4.4 17:25:23 10° NW 17:28:11 14° NNW 17:30:59 10° N
Cosmos 2333 Rocket 4.2 17:24:39 10° W 17:28:50 21° NW 17:33:01 10° NNE
USA 281 3.5 17:23:51 10° ESE 17:30:01 45° NE 17:36:13 10° NNW
USA 81 4.1 17:24:56 10° N 17:30:15 87° W 17:35:33 10° S
Cosmos 2219 Rocket 4.1 17:26:36 10° W 17:30:48 21° NW 17:35:00 10° NNE
Cosmos 2228 Rocket 4.0 17:30:27 10° SE 17:34:14 27° E 17:34:29 27° E
Helios 1A Rocket 3.6 17:33:25 27° E 17:34:15 30° ENE 17:37:48 10° N
CORIOLIS 4.4 17:28:58 10° S 17:34:23 73° WSW 17:39:52 10° NNW
Meteor 1-4 Rocket 2.4 17:31:50 10° S 17:35:22 62° E 17:37:26 23° NNE
Cosmos 1821 Rocket 4.2 17:30:10 10° N 17:36:13 49° ENE 17:42:19 10° SSE
H-2A R/B 2.8 17:35:17 20° ESE 17:37:46 29° ENE 17:42:08 10° N
Cosmos 1812 4.2 17:34:51 10° SE 17:36:35 20° ESE 17:36:35 20° ESE
USA 267 3.3 17:34:11 20° E 17:38:53 65° NNE 17:45:22 10° WNW
Meteor 1-11 Rocket 4.3 17:33:55 10° N 17:39:11 35° ENE 17:44:32 10° SE
NOSS 3-3 (A) 4.4 17:32:22 10° NW 17:39:33 68° NE 17:47:44 10° ESE
NOSS 3-3 (C) 4.5 17:32:25 10° NW 17:39:40 67° NE 17:47:49 10° ESE
Cosmos 1939 Rocket 2.7 17:36:16 10° SSE 17:40:07 64° ENE 17:44:03 10° N
Cosmos 44 Rocket 3.4 17:36:11 10° NW 17:41:19 62° NE 17:45:08 18° ESE
Cosmos 389 Rocket 4.4 17:38:23 10° SW 17:41:23 28° WNW 17:44:25 10° N
Cosmos 1328 Rocket 3.5 17:37:05 10° S 17:41:24 88° W 17:45:47 10° N
Cosmos 1933 Rocket 3.5 17:37:12 10° N 17:41:41 71° ENE 17:46:08 10° SSE
CZ-4 R/B 1.9 17:41:26 31° E 17:42:26 36° ENE 17:46:11 10° N
Cosmos 1980 Rocket 4.3 17:43:01 10° N 17:44:12 11° N 17:45:16 10° NNE
Cosmos 1602 4.0 17:40:21 10° NNW 17:44:16 72° W 17:48:08 10° S
CSL-04 Rocket 4.3 17:44:05 28° E 17:45:17 31° ENE 17:49:52 10° N
IRS-1C Rocket 4.0 17:41:20 10° SSE 17:46:33 67° ENE 17:51:49 10° NNW
SL-24 R/B 4.3 17:49:34 37° ESE 17:49:34 37° ESE 17:52:37 10° SSE
Cosmos 2181 Rocket 4.2 17:43:06 10° SSW 17:49:30 76° W 17:55:52 10° N
NOAA 11 4.5 17:45:01 10° S 17:50:25 70° WSW 17:55:53 10° NNW
Cosmos 2237 Rocket 3.7 17:45:35 10° WSW 17:50:35 32° NW 17:55:37 10° NNE
CZ-4B R/B 4.3 17:46:41 10° S 17:51:46 45° W 17:56:51 10° NNW
Cosmos 1603 3.9 17:49:31 10° S 17:54:52 47° ESE 17:56:56 33° ENE
Meteor 1-26 Rocket 4.4 17:49:02 10° SSW 17:55:04 85° W 18:01:06 10° NNE
H-2A R/B 3.1 17:52:50 10° N 17:56:51 45° WNW 18:00:56 10° SW
CZ-2D R/B 3.1 17:53:10 10° SSE 17:56:58 69° ENE 18:00:49 10° N
Cosmos 2369 Rocket 2.6 17:51:48 10° NW 17:57:28 66° WSW 18:03:03 10° SSE
Cosmos 1943 3.5 17:52:55 10° S 17:58:16 45° ESE 17:59:58 35° ENE
Cosmos 1943 Rocket 3.4 17:53:24 10° NW 17:58:35 42° WSW 18:03:48 10° S
Meteor 1-5 Rocket 4.2 17:53:52 10° N 17:59:49 72° ENE 18:05:34 10° SSE
Cosmos 1538 Rocket 4.0 17:55:01 10° SSW 18:00:23 79° ESE 18:03:44 24° NNE
Cosmos 1371 Rocket 4.2 17:57:41 10° NNW 18:02:41 46° ENE 18:03:40 41° E
Cosmos 1782 3.0 17:59:51 10° SSW 18:03:48 70° WNW 18:06:45 17° N
Okean O Rocket 3.3 17:59:57 10° SSW 18:03:55 34° W 18:07:57 10° NNW
Okean-O 2.5 18:00:59 10° SSE 18:05:21 62° ENE 18:09:46 10° N
ISS -3.8 18:02:34 10° W 18:05:56 83° SSW 18:05:56 83° SSW
ARGOS 3.6 18:08:31 39° NE 18:08:31 39° NE 18:13:12 10° N
CENTAUR R/B 3.5 18:03:31 10° SSE 18:07:44 26° ESE 18:07:44 26° ESE
Cosmos 2056 Rocket 3.7 18:03:52 10° NNW 18:08:58 46° ENE 18:09:28 45° ENE
ERS-2 2.1 18:10:45 51° N 18:11:36 80° WNW 18:15:16 10° SSW
SKYMED 2 3.4 18:11:44 40° NNE 18:13:15 79° ESE 18:17:35 10° S
NOSS 3-2 (C) 4.4 18:11:41 10° S 18:15:09 26° SE 18:15:09 26° SE
Cosmos 1869 Rocket 3.4 18:11:56 10° N 18:16:26 69° ENE 18:17:48 43° SE
BREEZE-M DEB (TANK) 4.3 18:13:12 10° SW 18:19:40 30° SSE 18:19:59 30° SSE
Cosmos 1605 Rocket 4.4 18:17:10 10° N 18:21:48 38° NE 18:21:48 38° NE
Cosmos 1624 Rocket 3.9 18:20:30 10° NNW 18:25:47 61° ENE 18:25:56 60° ENE
Lacrosse 5 rocket 1.9 18:22:49 10° W 18:25:53 42° NW 18:25:53 42° NW
Meteor 1-10 Rocket 4.1 18:21:30 10° S 18:27:05 68° E 18:28:49 44° NNE
BREEZE-M DEB (TANK) 4.2 18:25:39 10° W 18:26:37 25° WSW 18:26:37 25° WSW
Cosmos 371 Rocket 3.2 18:23:12 10° NNW 18:28:01 69° NE 18:28:01 69° NE
CZ-4B R/B 2.8 18:29:34 34° WNW 18:29:39 34° WNW 18:32:32 10° SW
NOSS 3-2 (A) 3.3 18:35:43 10° SSW 18:41:20 61° SE 18:41:27 61° ESE
SL-16 R/B 3.6 18:38:42 10° WSW 18:43:45 32° NW 18:46:58 19° N
Cosmos 1535 Rocket 4.3 18:37:39 10° N 18:43:48 79° E 18:49:56 10° SSE
YAOGAN 1 2.9 18:46:28 63° WSW 18:46:35 64° WSW 18:50:55 10° NNW
USA 215 3.3 18:46:42 53° SE 18:47:07 54° SE 18:53:29 10° SW
MOS 1 Rocket 3.5 18:52:43 85° N 18:52:52 89° WNW 18:58:15 10° SSW
USA 238 DEB 3.5 18:54:08 10° SSW 19:00:35 71° SE 19:00:35 71° SE
USA 238 3.5 18:54:13 10° SSW 19:00:39 70° SE 19:00:39 70° SE
COSMO-SKYMED 1 3.9 19:00:20 34° NW 19:01:12 38° WNW 19:05:13 10° SW
Cosmos 158 Rocket 4.4 18:56:52 10° SSW 19:00:45 54° SW 19:00:45 54° SW
CZ-2C R/B 4.0 18:57:55 10° S 19:02:38 43° W 19:07:13 10° NNW
Cosmos 1238 Rocket 4.4 18:59:35 10° NNW 19:03:14 37° W 19:07:35 10° SSW
X-37B 4.0 19:01:33 10° WSW 19:01:44 11° WSW 19:01:44 11° WSW
Cosmos 1934 Rocket 4.2 18:59:22 10° NNW 19:05:45 72° W 19:12:00 10° S
Cosmos 923 Rocket 4.3 19:00:35 10° SSW 19:05:13 64° WSW 19:05:13 64° WSW
Cosmos 2228 Rocket 4.4 19:08:01 10° SW 19:12:02 39° W 19:12:02 39° W
USA 281 3.9 19:08:08 10° S 19:14:29 51° WSW 19:20:53 10° NW
H-2A R/B 2.8 19:15:55 43° SW 19:16:59 50° W 19:21:59 10° NNW
CZ-4 R/B 3.4 19:17:27 26° W 19:17:32 26° W 19:20:59 10° NW
USA 267 3.3 19:21:32 66° SSW 19:21:56 68° SW 19:28:28 10° WNW
CSL-04 Rocket 4.4 19:25:43 50° W 19:25:43 50° W 19:30:36 10° NNW
Cosmos 1980 Rocket 4.4 19:26:04 10° NNW 19:27:02 14° N 19:27:02 14° N
Cosmos 1943 4.3 19:37:04 10° WSW 19:41:49 40° WNW 19:41:49 40° WNW
CENTAUR R/B 3.9 19:52:07 10° SW 19:54:58 31° SW 19:54:58 31° SW
